Other Public Products
Issued by NWS Charleston, SC

Current Version | Previous Version | Text Only | Print | Product List | Glossary Off
Versions: 1 2 3 4 5 6 7 8 9 10 11 12 13 14 15 16 17 18 19 20 21 22 23 24 25 26 27 28 29 30 31 32 33 34 35 36 37 38 39 40 41 42 43 44 45 46 47 48 49 50
935 FPUS82 KCHS 190112 OPUCHS TEST...KCHS/KSAV Gateway Observations...TEST National Weather Service Charleston SC 900 PM EDT WED OCT 18 2017 NOTE: "fair" indicates few or no clouds below 12,000 feet with no significant weather and/or obstructions to visibility. SCZ050-WAZ558-NCZ071-TXZ119-213-PAZ071-DCZ001-FLZ074-172-MI076- NYZ176-178-MAZ016-IL014-TNZ027-NJZ106-GAZ044-MD014-190200- ...Gateway Observations for Charleston International... CITY SKY/WX TMP DP RH WIND PRES REMARKS Chas Airport CLEAR 62 57 83 NE5 30.26S Seattle LGT RAIN 63 51 65 S26G39 29.59F Charlotte PTCLDY 55 42 61 NE3 30.32S Dallas DFW MOCLDY 69 42 37 SE9 30.07R Dallas Love MOCLDY 74 42 31 SE12 30.08R Philladelphia CLEAR 61 48 62 S8 30.31R Wash National PTCLDY 60 48 64 S6 30.32R Baltimore PTCLDY 53 47 79 CALM 30.31R Miami CLOUDY 82 74 76 NE7 30.02R Detroit PTCLDY 57 42 57 S9 30.12S Newark CLEAR 64 48 56 S6 30.28R Laguardia CLEAR 64 51 62 S6 30.28R J F K CLEAR 61 57 87 S9 30.30R Boston Logan CLEAR 60 47 61 SW5 30.26R Ft. Lauderdale MOCLDY 79 74 84 N3 30.02R Chicago O`Hare MOCLDY 64 41 42 S12 30.03S Chicago Midway CLOUDY 65 42 43 S14 30.05R Houston Bush PTCLDY 71 62 73 SE9 30.11R Houston Hobby MOCLDY 74 64 71 E6 30.11R Nashville PTCLDY 59 46 62 S5 30.24R Atlanta CLEAR 59 44 57 E8 30.28S $$ GAZ044-118-TXZ119-213-NCZ071-DCZ001-MDZ014-506-PAZ021-071-NJZ106- NYZ176-178-MAZ106-OHZ011-021-055-MIZ076-KYZ091-ILZ014-INZ047- MNZ060-ONZ431-190200- ...Gateway Observations for Savannah International... CITY SKY/WX TMP DP RH WIND PRES REMARKS Savannah Arpt CLEAR 65 60 84 NE9 30.26R Atlanta CLEAR 59 44 57 E8 30.28S Charlotte PTCLDY 55 42 61 NE3 30.32S Dallas DFW MOCLDY 69 42 37 SE9 30.07R Houston Bush PTCLDY 71 62 73 SE9 30.11R Wash National PTCLDY 60 48 64 S6 30.32R Wash Dulles PTCLDY 56 44 64 S5 30.31R Baltimore PTCLDY 53 47 79 CALM 30.31R Philadelphia CLEAR 61 48 62 S8 30.31R Newark CLEAR 64 48 56 S6 30.28R Laguardia CLEAR 64 51 62 S6 30.28R J F K CLEAR 61 57 87 S9 30.30R Boston CLEAR 60 47 61 SW5 30.26R Pittsburg PTCLDY 56 44 64 CALM 30.23R Akron CLEAR 57 39 51 S5 30.21F Cleveland PTCLDY 57 42 57 S7 30.19S Cincinnati CLEAR 55 46 71 S5 30.21S Columbus CLEAR 53 41 64 S6 30.21S Detroit PTCLDY 57 42 57 S9 30.12S Chicago O`Hare MOCLDY 64 41 42 S12 30.03S Minneapolis MOCLDY 59 23 25 W15G23 29.96R Indianapolis CLEAR 59 44 57 S10 30.17R Toronto Canada CLEAR 59 43 55 S9 30.10F $$

USA.gov is the U.S. government's official web portal to all federal, state and local government web resources and services.